Hourly Data Report for October 26, 2014

All times are specified in Local Standard Time (LST). Add 1 hour to adjust for Daylight Saving Time where and when it is observed.

ST LEONARD CS
NEW BRUNSWICK

47°09'28.050" N
67°49'55.014" W
245.00 m
810I001
71019
WIY

Download Data

Hourly Data (October 2014)
Hourly Data Report for October 26, 2014
Temp Definition
°C
Dew Point Temp Definition
°C
Rel Hum Definition
%
Wind Dir Definition
10's deg

Wind Spd Definition
km/h
Visibility Definition
km
Stn Press Definition
kPa
Hmdx Definition


Wind Chill Definition


Weather Definition


TIME
00:00 4.2 3.8 97 9 2   96.84     LegendNANA
01:00 4.2 3.8 98 11 1   96.83     LegendNANA
02:00 4.1 3.8 98 12 2   96.78     LegendNANA
03:00 3.9 3.6 98 11 2   96.73     LegendNANA
04:00 3.7 3.4 98 10 2   96.65     LegendNANA
05:00 3.5 3.2 98 11 2   96.62     LegendNANA
06:00 3.5 3.2 98 10 2   96.56     LegendNANA
07:00 3.5 3.2 98 10 2   96.53     LegendNANA
08:00 3.7 3.3 98 10 1   96.53     LegendNANA
09:00 4.0 3.7 98 11 1   96.54     LegendNANA
10:00 4.4 4.1 98 0 1   96.52     LegendNANA
11:00 5.2 4.8 98 0 1   96.48     LegendNANA
12:00 5.9 5.6 98 22 1   96.49     LegendNANA
13:00 6.3 5.8 97   0   96.45     LegendNANA
14:00 6.2 5.7 96 33 2   96.48     LegendNANA
15:00 6.5 5.4 93 31 1   96.52     LegendNANA
16:00 6.6 5.2 91 31 2   96.58     LegendNANA
17:00 5.8 5.1 95 31 1   96.63     LegendNANA
18:00 5.3 4.8 97 31 4   96.70     LegendNANA
19:00 5.0 4.4 96 31 4   96.75     LegendNANA
20:00 4.7 4.2 97 31 2   96.79     LegendNANA
21:00 4.6 4.2 97 31 2   96.80     LegendNANA
22:00 4.1 3.7 97 30 4   96.82     LegendNANA
23:00 3.7 3.2 96 30 3   96.85     LegendNANA

Notes on Data Quality.

Legend

  • E = Estimated
  • M = Missing
  • NA = Not Available
  • ‡ = Partner data that is not subject to review by the National Climate Archives
Date modified: